Погода в Харыялахе

Россия / Республика Саха (Якутия)     68°29′52″N   112°24′37″E
темп.,
°C
ветер,
м/с
пор.,
м/с
влажн.,
%
обл.,
%
осадки,
мм/ч
давл.,
гПа
погр.,
м
3 марта, ср
ср300:00−36юз119799 0.0 102719
03:00−35зюз119699 0.0 102719
06:00−36зюз1197100 0.0 102719
09:00−38юз1110099 0.0 102819
12:00−35зюз119488 0.0 102799
15:00−33з128683 0.0 1027299
18:00−37з009445 0.0 102819
21:00−39з119823 0.0 102819
4 марта, чт
чт400:00−40з11971 0.0 102919
03:00−41з11971 0.0 102918
06:00−41з119812 0.0 103018
09:00−41з119915 0.0 103018
12:00−36зюз119120 0.0 1030108
15:00−33з128725 0.0 1030256
18:00−36зюз009522 0.0 103019
21:00−39юв009911 0.0 103119
5 марта, пт
пт500:00−39ююв11990 0.0 103019
03:00−40вюв111000 0.0 103019
06:00−40вюв111000 0.0 103019
09:00−40вюв11990 0.0 102918
12:00−34вюв11880 0.0 1029104
15:00−30вюв24810 0.0 1027317
18:00−31вюв33860 0.0 102720
21:00−35в22900 0.0 102719
6 марта, сб
сб600:00−36в22950 0.0 102619
03:00−36в22940 0.0 102519
06:00−35в229665 0.0 102419
09:00−33в229877 0.0 102341
12:00−30в239498 0.1 1021220
15:00−26вюв479499 0.1 1020394
18:00−25вюв5894100 0.0 1019249
21:00−27вюв339699 0.1 101853
7 марта, вс
вс700:00−25вюв249899 0.1 1017119
03:00−25вюв259898 0.2 1016151
06:00−25вюв2299100 0.2 101535
09:00−25вюв2298100 0.3 101455
12:00−21юв3696100 0.1 1012356
15:00−19ююв4694100 0.4 1011421
18:00−18юв2394100 0.1 101073
21:00−21вюв229699 0.1 101020